Weather History for Modesto, CA

Change the Weather History Date:

Tuesday, May 6, 2014

  Actual Average Record
Temperature  
Mean Temperature 63 °F -  
Max Temperature 76 °F 81 °F 100 °F (1987)
Min Temperature 50 °F 53 °F 37 °F (1933)
Degree Days  
Heating Degree Days 2 2  
Month to date heating degree days 2 12  
Since 1 July heating degree days 1959 2146  
Cooling Degree Days 0 4  
Month to date cooling degree days 26 19  
Year to date cooling degree days 87 63  
Growing Degree Days 13 (Base 50)    
Moisture  
Dew Point 40 °F    
Average Humidity 52    
Maximum Humidity 83    
Minimum Humidity 21    
Precipitation  
Precipitation 0.01 in 0.03 in 0.91 in (1994)
Month to date precipitation 0.01 0.16  
Year to date precipitation 5.51 8.16  
Since 1 July precipitation 7.00 12.52  
Snow  
Snow 0.00 in - - ()
Month to date snowfall 0.0  
Since 1 July snowfall 0.0  
Snow Depth -    
Sea Level Pressure  
Sea Level Pressure 29.86 in    
Wind  
Wind Speed 10 mph (NW)    
Max Wind Speed 23 mph    
Max Gust Speed 29 mph    
Visibility 10 miles    
Events Rain    
T = Trace of Precipitation, MM = Missing Value Source: NWS Daily Summary

Daily Weather History Graph

Daily Weather History Graph

Search for Another Location

Airport:

Trip Planner

Search our weather history database for the weather conditions in past years. The results will help you decide how hot, cold, wet, or windy it might be!

Date:

Astronomy

May. 06, 2014 Rise Set
Actual Time 6:02 AM PDT 7:58 PM PDT
Civil Twilight 5:34 AM PDT 8:27 PM PDT
Nautical Twilight 4:59 AM PDT 9:02 PM PDT
Astronomical Twilight 4:22 AM PDT 9:39 PM PDT
Moon 12:22 PM PDT (5/6) 1:21 AM PDT (5/6)
Length of Visible Light 14h 53m
Length of Day
13h 55m
Waxing Crescent, 47% of the Moon is Illuminated
May 6
Waxing Crescent
May 6
First Quarter
May 14
Full
May 21
Last Quarter
May 28
New

Hourly Weather History & Observations

Time (PDT) Temp. Dew Point Humidity Pressure Visibility Wind Dir Wind Speed Gust Speed Precip Events Conditions
12:53 AM 55.9 °F 43.0 °F 62% 29.89 in 10.0 mi West 8.1 mph - N/A   Partly Cloudy
4:53 AM 51.1 °F 42.1 °F 71% 29.88 in 10.0 mi NW 6.9 mph - N/A   Scattered Clouds
5:53 AM 52.0 °F 43.0 °F 71% 29.89 in 10.0 mi North 3.5 mph - 0.00 in Rain Light Rain
7:53 AM 53.1 °F 46.0 °F 77% 29.91 in 10.0 mi NW 6.9 mph - 0.00 in   Overcast
8:53 AM 55.0 °F 46.0 °F 72% 29.91 in 10.0 mi NW 8.1 mph - 0.00 in   Overcast
9:53 AM 60.1 °F 43.0 °F 53% 29.90 in 10.0 mi WNW 11.5 mph - N/A   Mostly Cloudy
10:53 AM 63.0 °F 39.9 °F 43% 29.89 in 10.0 mi NNW 6.9 mph 17.3 mph N/A   Clear
11:53 AM 66.0 °F 39.9 °F 38% 29.88 in 10.0 mi NW 13.8 mph 28.8 mph N/A   Partly Cloudy
12:53 PM 68.0 °F 39.0 °F 35% 29.86 in 10.0 mi NNW 12.7 mph 20.7 mph N/A   Scattered Clouds
1:53 PM 71.1 °F 39.0 °F 31% 29.85 in 10.0 mi NNW 11.5 mph 19.6 mph N/A   Scattered Clouds
2:53 PM 73.9 °F 37.9 °F 27% 29.83 in 10.0 mi NW 18.4 mph 27.6 mph N/A   Scattered Clouds
3:53 PM 73.9 °F 37.0 °F 26% 29.82 in 10.0 mi WNW 17.3 mph 26.5 mph N/A   Mostly Cloudy
4:53 PM 75.0 °F 34.0 °F 22% 29.81 in 10.0 mi NNW 16.1 mph 24.2 mph N/A   Scattered Clouds
5:53 PM 73.0 °F 37.9 °F 28% 29.81 in 10.0 mi WNW 17.3 mph - N/A   Partly Cloudy
6:53 PM 70.0 °F 39.0 °F 32% 29.81 in 10.0 mi West 17.3 mph 21.9 mph N/A   Clear
7:53 PM 68.0 °F 37.9 °F 33% 29.82 in 10.0 mi West 10.4 mph - N/A   Clear
8:53 PM 66.0 °F 36.0 °F 33% 29.83 in 10.0 mi WNW 11.5 mph - N/A   Clear
9:53 PM 64.0 °F 36.0 °F 35% 29.85 in 10.0 mi WNW 11.5 mph - N/A   Clear
10:53 PM 61.0 °F 39.0 °F 44% 29.85 in 10.0 mi ENE 5.8 mph - N/A   Clear
11:53 PM 55.9 °F 41.0 °F 57% 29.86 in 10.0 mi East 4.6 mph - N/A   Clear